| time (UTC) | temp C | wind direction | speed KPH | gust KPH | rain 1hr cm | rain 24hr cm | rain mn cm | humidity % | barometer mb |
| 20260510190059 | 27 | 133 | 4.8 | 17.7 | 0.00 | 0.84 | 0.03 | 75 | 1016.3 |
| 20260510184600 | 27 | 165 | 8.0 | 17.7 | 0.00 | 1.30 | 0.03 | 75 | 1016.2 |
| 20260510183055 | 27 | 169 | 8.0 | 16.1 | 0.00 | 1.30 | 0.03 | 74 | 1016.4 |
| 20260510181600 | 27 | 164 | 8.0 | 14.5 | 0.00 | 1.30 | 0.03 | 77 | 1016.6 |
| 20260510180054 | 27 | 120 | 3.2 | 14.5 | 0.00 | 1.30 | 0.03 | 77 | 1016.7 |
| 20260510174553 | 27 | 151 | 8.0 | 12.9 | 0.00 | 2.08 | 0.03 | 74 | 1016.9 |
| 20260510173050 | 27 | 110 | 3.2 | 12.9 | 0.00 | 2.08 | 0.03 | 75 | 1017.1 |
| 20260510171552 | 27 | 76 | 1.6 | 9.7 | 0.00 | 2.08 | 0.03 | 78 | 1017.2 |
| 20260510170054 | 27 | 74 | 0.0 | 11.3 | 0.00 | 2.08 | 0.03 | 81 | 1017.2 |
| 20260510164544 | 26 | 355 | 0.0 | 8.0 | 0.00 | 2.29 | 0.03 | 83 | 1017.4 |
| 20260510163041 | 26 | 360 | 1.6 | 9.7 | 0.00 | 2.29 | 0.03 | 85 | 1017.6 |
| 20260510161538 | 25 | 119 | 1.6 | 11.3 | 0.00 | 2.29 | 0.03 | 86 | 1017.5 |
| 20260510160038 | 25 | 94 | 4.8 | 11.3 | 0.00 | 2.29 | 0.03 | 87 | 1017.3 |
| 20260510154532 | 23 | 112 | 3.2 | 11.3 | 0.00 | 2.74 | 0.03 | 89 | 1017.2 |
| 20260510153034 | 23 | 84 | 3.2 | 9.7 | 0.00 | 2.74 | 0.03 | 82 | 1017.3 |
| 20260510151525 | 22 | 90 | 1.6 | 12.9 | 0.03 | 2.74 | 0.03 | 80 | 1017.2 |
| 20260510150033 | 22 | 109 | 3.2 | 12.9 | 0.03 | 2.74 | 0.03 | 81 | 1017.5 |
| 20260510144522 | 21 | 107 | 1.6 | 8.0 | 0.03 | 3.07 | 0.03 | 81 | 1017.5 |
| 20260510143021 | 21 | 88 | 0.0 | 8.0 | 0.03 | 3.07 | 0.03 | 82 | 1017.6 |
| 20260510141525 | 20 | 94 | 0.0 | 8.0 | 0.00 | 3.05 | 0.00 | 82 | 1017.7 |
| 20260510140012 | 20 | 78 | 1.6 | 8.0 | 0.00 | 3.05 | 0.00 | 82 | 1017.6 |
| 20260510134512 | 20 | 81 | 1.6 | 4.8 | 0.00 | 5.31 | 0.00 | 82 | 1017.3 |
| 20260510133007 | 20 | 77 | 0.0 | 6.4 | 0.00 | 5.31 | 0.00 | 82 | 1017.2 |
| 20260510131506 | 19 | 71 | 0.0 | 3.2 | 0.00 | 5.31 | 0.00 | 82 | 1017.1 |
| 20260510130003 | 18 | 71 | 0.0 | 6.4 | 0.00 | 5.31 | 0.00 | 82 | 1016.9 |
| 20260510124501 | 18 | 65 | 0.0 | 0.0 | 0.00 | 6.25 | 0.00 | 83 | 1016.8 |
| 20260510123116 | 18 | 66 | 1.6 | 4.8 | 0.00 | 6.25 | 0.00 | 83 | 1016.6 |
| 20260510121559 | 18 | 65 | 0.0 | 0.0 | 0.00 | 6.25 | 0.00 | 83 | 1016.6 |
| 20260510120056 | 18 | 65 | 0.0 | 6.4 | 0.00 | 6.25 | 0.00 | 83 | 1016.2 |
| 20260510114554 | 18 | 65 | 0.0 | 3.2 | 0.00 | 6.25 | 0.00 | 83 | 1015.8 |
| 20260510113051 | 18 | 65 | 1.6 | 6.4 | 0.00 | 6.25 | 0.00 | 83 | 1015.6 |
| 20260510111551 | 18 | 61 | 0.0 | 3.2 | 0.00 | 6.25 | 0.00 | 83 | 1015.2 |
| 20260510110050 | 18 | 49 | 3.2 | 6.4 | 0.00 | 6.25 | 0.00 | 83 | 1015.0 |
| 20260510104545 | 18 | 29 | 0.0 | 6.4 | 0.00 | 6.25 | 0.00 | 83 | 1014.6 |
| 20260510103051 | 18 | 9 | 0.0 | 1.6 | 0.00 | 6.25 | 0.00 | 83 | 1014.4 |
| 20260510101540 | 18 | 9 | 0.0 | 1.6 | 0.00 | 6.25 | 0.00 | 83 | 1014.1 |
| 20260510100040 | 18 | 9 | 0.0 | 1.6 | 0.00 | 6.25 | 0.00 | 83 | 1014.1 |
| 20260510094544 | 18 | 9 | 0.0 | 3.2 | 0.00 | 10.36 | 0.00 | 83 | 1014.0 |
| 20260510093039 | 18 | 5 | 0.0 | 9.7 | 0.00 | 10.36 | 0.00 | 83 | 1013.9 |
| 20260510091537 | 18 | 27 | 0.0 | 8.0 | 0.00 | 10.36 | 0.00 | 83 | 1013.9 |
| 20260510090036 | 18 | 45 | 0.0 | 4.8 | 0.00 | 10.36 | 0.00 | 83 | 1013.9 |
| 20260510084536 | 18 | 54 | 0.0 | 3.2 | 0.00 | 10.57 | 0.00 | 83 | 1013.8 |
| 20260510083036 | 18 | 54 | 0.0 | 1.6 | 0.00 | 10.57 | 0.00 | 83 | 1013.6 |
| 20260510081542 | 18 | 54 | 0.0 | 0.0 | 0.00 | 10.57 | 0.00 | 83 | 1013.6 |
| 20260510080034 | 18 | 54 | 0.0 | 3.2 | 0.00 | 10.57 | 0.00 | 83 | 1013.4 |
| 20260510074533 | 18 | 54 | 0.0 | 0.0 | 0.00 | 10.57 | 0.00 | 83 | 1013.4 |
| 20260510073031 | 18 | 53 | 0.0 | 3.2 | 0.00 | 10.57 | 0.00 | 83 | 1013.3 |
| 20260510071532 | 18 | 53 | 0.0 | 3.2 | 0.00 | 10.57 | 0.00 | 83 | 1013.3 |
| 20260510070034 | 18 | 55 | 0.0 | 4.8 | 0.00 | 10.57 | 0.00 | 83 | 1013.5 |
| 20260510064529 | 18 | 80 | 0.0 | 4.8 | 0.00 | 10.57 | 0.00 | 83 | 1013.5 |
| 20260510063029 | 19 | 93 | 0.0 | 0.0 | 0.00 | 10.57 | 0.00 | 83 | 1013.5 |
| 20260510061530 | 19 | 93 | 0.0 | 0.0 | 0.00 | 10.57 | 0.00 | 83 | 1013.6 |
| 20260510060028 | 19 | 93 | 0.0 | 3.2 | 0.00 | 10.57 | 0.00 | 83 | 1013.7 |
| 20260510054531 | 19 | 94 | 1.6 | 9.7 | 0.00 | 10.57 | 0.00 | 83 | 1013.5 |
| 20260510053025 | 19 | 184 | 0.0 | 0.0 | 0.00 | 10.57 | 0.00 | 83 | 1013.6 |
| 20260510051532 | 19 | 184 | 0.0 | 0.0 | 0.00 | 10.57 | 0.00 | 83 | 1013.8 |
| 20260510050022 | 19 | 184 | 0.0 | 1.6 | 0.00 | 10.57 | 0.00 | 83 | 1013.7 |
| 20260510044522 | 19 | 184 | 0.0 | 1.6 | 0.00 | 10.57 | 10.57 | 83 | 1013.6 |
| 20260510043024 | 19 | 184 | 0.0 | 0.0 | 0.00 | 10.57 | 10.57 | 83 | 1013.8 |
| 20260510041520 | 19 | 184 | 0.0 | 1.6 | 0.00 | 10.57 | 10.57 | 83 | 1013.5 |
| 20260510040021 | 20 | 186 | 0.0 | 0.0 | 0.00 | 10.57 | 10.57 | 83 | 1013.9 |
| 20260510034520 | 20 | 186 | 0.0 | 0.0 | 0.00 | 10.57 | 10.57 | 84 | 1014.3 |
| 20260510033020 | 20 | 186 | 0.0 | 0.0 | 0.00 | 10.57 | 10.57 | 84 | 1014.3 |
| 20260510031519 | 20 | 186 | 0.0 | 3.2 | 0.00 | 10.57 | 10.57 | 84 | 1014.2 |
| 20260510030018 | 20 | 189 | 0.0 | 0.0 | 0.00 | 10.57 | 10.57 | 83 | 1014.0 |
| 20260510024519 | 20 | 189 | 0.0 | 1.6 | 0.00 | 10.57 | 10.57 | 83 | 1014.3 |
| 20260510023017 | 20 | 189 | 0.0 | 1.6 | 0.03 | 10.57 | 10.57 | 84 | 1014.0 |
| 20260510021525 | 20 | 161 | 0.0 | 3.2 | 0.03 | 10.57 | 10.57 | 84 | 1013.3 |
| 20260510020017 | 20 | 166 | 4.8 | 9.7 | 0.05 | 10.57 | 10.57 | 84 | 1012.9 |
| 20260510014517 | 20 | 137 | 3.2 | 9.7 | 0.05 | 10.57 | 10.57 | 84 | 1012.6 |
| 20260510013015 | 20 | 157 | 0.0 | 0.0 | 0.05 | 10.54 | 10.54 | 84 | 1013.2 |
| 20260510011516 | 20 | 157 | 0.0 | 6.4 | 0.05 | 10.54 | 10.54 | 84 | 1013.4 |
| 20260510010015 | 20 | 148 | 3.2 | 6.4 | 0.03 | 10.49 | 10.49 | 84 | 1012.9 |
| 20260510004514 | 20 | 148 | 0.0 | 3.2 | 0.05 | 10.64 | 10.49 | 84 | 1012.9 |
| 20260510003014 | 20 | 145 | 1.6 | 8.0 | 0.05 | 10.62 | 10.49 | 84 | 1012.9 |
| 20260510001512 | 20 | 121 | 0.0 | 6.4 | 0.08 | 10.62 | 10.49 | 84 | 1013.0 |
| 20260510000018 | 20 | 158 | 0.0 | 1.6 | 0.08 | 10.62 | 10.49 | 84 | 1013.3 |
| 20260509234512 | 20 | 158 | 0.0 | 0.0 | 0.05 | 10.72 | 10.46 | 84 | 1013.4 |
| 20260509233011 | 20 | 158 | 0.0 | 0.0 | 0.05 | 10.69 | 10.44 | 84 | 1013.6 |
| 20260509231512 | 20 | 158 | 0.0 | 3.2 | 0.03 | 10.67 | 10.39 | 84 | 1013.4 |
| 20260509230011 | 20 | 158 | 0.0 | 1.6 | 0.05 | 10.67 | 10.39 | 84 | 1013.0 |
| 20260509224510 | 19 | 158 | 0.0 | 0.0 | 0.05 | 10.72 | 10.39 | 84 | 1012.2 |
| 20260509223017 | 19 | 158 | 0.0 | 4.8 | 0.03 | 10.69 | 10.39 | 84 | 1012.0 |
| 20260509221509 | 19 | 182 | 1.6 | 9.7 | 0.03 | 10.69 | 10.39 | 84 | 1012.6 |
| 20260509220011 | 19 | 173 | 1.6 | 6.4 | 0.00 | 10.67 | 10.36 | 84 | 1012.9 |
| 20260509214509 | 19 | 172 | 0.0 | 0.0 | 0.00 | 11.73 | 10.36 | 84 | 1012.9 |
| 20260509213008 | 19 | 172 | 0.0 | 9.7 | 0.03 | 11.73 | 10.36 | 84 | 1012.0 |
| 20260509211514 | 19 | 171 | 1.6 | 9.7 | 0.05 | 11.73 | 10.36 | 84 | 1011.3 |
| 20260509210007 | 19 | 164 | 4.8 | 11.3 | 0.10 | 11.73 | 10.36 | 84 | 1011.3 |
| 20260509204507 | 19 | 146 | 1.6 | 6.4 | 0.20 | 12.47 | 10.36 | 84 | 1011.7 |
| 20260509203008 | 19 | 151 | 0.0 | 0.0 | 0.30 | 12.45 | 10.34 | 84 | 1012.9 |
| 20260509201506 | 19 | 151 | 0.0 | 3.2 | 0.41 | 12.40 | 10.29 | 84 | 1013.0 |
| 20260509200005 | 19 | 156 | 0.0 | 9.7 | 0.46 | 12.34 | 10.24 | 84 | 1012.8 |
| 20260509194505 | 19 | 154 | 1.6 | 8.0 | 0.56 | 12.29 | 10.16 | 84 | 1012.8 |
| 20260509193007 | 19 | 192 | 0.0 | 6.4 | 0.53 | 12.17 | 10.03 | 84 | 1013.7 |
| 20260509191504 | 19 | 171 | 0.0 | 8.0 | 0.48 | 12.04 | 9.91 | 84 | 1013.5 |